Regional Weather Roundup
Issued by NWS

Home | Current Version | Previous Version | Text Only | Print | Product List | Glossary On
Versions: 1 2 3 4 5 6 7 8 9 10 11 12 13 14 15 16 17 18 19 20 21 22 23 24 25 26 27 28 29 30 31 32 33 34 35 36 37 38 39 40 41 42 43 44 45 46 47 48 49 50
000
ASUS45 KABQ 020010
RWRNM
WEATHER ROUNDUP FOR NEW MEXICO
NATIONAL WEATHER SERVICE ALBUQUERQUE NM
500 PM MST SUN FEB 01 2015

NOTE: "FAIR" MEANS FEW OR NO CLOUDS BELOW 12,000 FEET AGL WITH NO
       SIGNIFICANT WEATHER OR OBSTRUCTIONS TO VISION.

      THIS PRODUCT IS RELEASED AS TWO VERSIONS.  ONE VERSION NEAR
      THE TOP OF THE HOUR CONTAINING PRELIMINARY DATA FROM ALBUQUERQUE
      AND OTHER STATIONS.  A FINAL VERSION WITH ADDITIONAL DATA IS
      ISSUED ABOUT 10 MINUTES AFTER THE HOUR.

NMZ501-503-504-510>518-020100-
NORTHWEST PLATEAU/NORTHCENTRAL MOUNTAINS

CITY           SKY/WX    TMP DP  RH WIND       PRES   REMARKS
FARMINGTON     CLEAR     45  26  47 W20       30.11R
6HR MIN TEMP:  32; 6HR MAX TEMP:  49;

LOS ALAMOS     CLEAR     34  26  72 E5        30.13R WCI  30
SANTA FE       CLEAR     41  27  57 NE6       30.09R
6HR MIN TEMP:  33; 6HR MAX TEMP:  44;

TAOS           PTCLDY    37  19  48 CALM      30.12R
ANGEL FIRE     FAIR      30  19  61 W16       30.09R WCI  19

$$
NMZ402-403-502-505>509-020100-
WESTCENTRAL MOUNTAINS/SOUTHWEST MOUNTAINS

CITY           SKY/WX    TMP DP  RH WIND       PRES   REMARKS
GALLUP         CLEAR     47  15  27 NE3       30.16R
6HR MIN TEMP:  33; 6HR MAX TEMP:  48;

GRANTS         CLEAR     44  12  27 N12       30.16R
SILVER CITY    CLEAR     54  39  58 S10       30.12R

$$
NMZ407-409-411-412-020100-
SOUTHERN DESERTS

CITY           SKY/WX    TMP DP  RH WIND       PRES   REMARKS
LORDSBURG      FAIR      54  39  58 CALM      30.08S
DEMING         CLEAR     56  38  50 SW6       30.09R
6HR MIN TEMP:  43; 6HR MAX TEMP:  57;

LAS CRUCES     CLEAR     57  35  44 CALM      30.09S
HOLLOMAN AFB   CLEAR     57  35  44 S3        30.07R
ALAMOGORDO     PTCLDY    55  37  50 S7        30.09R
T OR C         CLEAR     55  33  43 SE6       30.08R
6HR MIN TEMP:  48; 6HR MAX TEMP:  56;


$$
NMZ519>523-020100-
CENTRAL VALLEYS/CENTRAL HIGHLANDS

CITY           SKY/WX    TMP DP  RH WIND       PRES   REMARKS
ALBUQUERQUE    PTCLDY    49  26  41 NW13      30.12R
6HR MIN TEMP:  43; 6HR MAX TEMP:  51;

DOUBLE EAGLE   PTCLDY    45  27  49 NW16      30.13R
MORIARTY ARPT  FAIR      45  27  50 NW7       30.11R
6HR MIN TEMP:  39; 6HR MAX TEMP:  49;

CLINES CORNERS CLEAR     41  29  62 NW9       30.09R
6HR MIN TEMP:  36; 6HR MAX TEMP:  44;

BELEN          FAIR      50  29  45 NE9       30.12R
6HR MIN TEMP:  44; 6HR MAX TEMP:  52;

SOCORRO        FAIR      53  32  45 N6        30.11R
6HR MIN TEMP:  47; 6HR MAX TEMP:  55;


$$
NMZ524>526-539-540-020100-
SOUTHCENTRAL MOUNTAINS

CITY           SKY/WX    TMP DP  RH WIND       PRES   REMARKS
RUIDOSO        CLOUDY    36  32  87 E9        30.14S WCI  29

$$
NMZ527>531-020100-
NORTHEAST HIGHLANDS/NORTHEAST PLAINS

CITY           SKY/WX    TMP DP  RH WIND       PRES   REMARKS
LAS VEGAS      FOG       31  31 100 S18       30.08R VSB 1/2 WCI  19
6HR MIN TEMP:  30; 6HR MAX TEMP:  32;

RATON          CLOUDY    36  29  75 S14       30.07R WCI  27
6HR MIN TEMP:  32; 6HR MAX TEMP:  40;

CLAYTON        CLOUDY    32  20  61 NE10      30.16R WCI  24
6HR MIN TEMP:  32; 6HR MAX TEMP:  38;


$$
NMZ532>537-020100-
EASTCENTRAL PLAINS

CITY           SKY/WX    TMP DP  RH WIND       PRES   REMARKS
TUCUMCARI      CLOUDY    42  26  53 E10       30.15R
6HR MIN TEMP:  40; 6HR MAX TEMP:  47;

CANNON AFB     NOT AVBL
CLOVIS AIRPORT CLOUDY    39  25  56 E12       30.18R WCI  32

$$
NMZ028-029-538-020100-
SOUTHEAST PLAINS

CITY           SKY/WX    TMP DP  RH WIND       PRES   REMARKS
ROSWELL        CLOUDY    49  34  56 SE6       30.15R
6HR MIN TEMP:  45; 6HR MAX TEMP:  51;

ARTESIA        CLOUDY    50  36  57 SE5       30.16S
CARLSBAD       CLOUDY    51  38  60 SE5       30.15R
6HR MIN TEMP:  48; 6HR MAX TEMP:  53;

HOBBS          CLOUDY    46  34  61 NE8       30.18R


$$


USA.gov is the U.S. government's official web portal to all federal, state and local government web resources and services.